Regional Weather Roundup
Issued by NWS

Home | Current Version | Previous Version | Graphics & Text | Print | Product List | Glossary On
Versions: 1 2 3 4 5 6 7 8 9 10 11 12 13 14 15 16 17 18 19 20 21 22 23 24 25 26 27 28 29 30 31 32 33 34 35 36 37 38 39 40 41 42 43 44 45 46 47 48 49 50
000
ASUS43 KIND 251759
RWRIN

WEATHER ROUNDUP FOR INDIANA
NATIONAL WEATHER SERVICE INDIANAPOLIS IN
200 PM EDT FRI JUL 25 2014

NOTE: "FAIR" INDICATES FEW OR NO CLOUDS BELOW 12,000 FEET WITH NO
SIGNIFICANT WEATHER AND/OR OBSTRUCTIONS TO VISIBILITY.

* - STATION DOES NOT REPORT WEATHER SUCH AS PRECIPITATION OR FOG.

+ - STATION NOT QUALITY CONTROLLED BY THE NATIONAL WEATHER SERVICE.
    USE DATA WITH CAUTION...ESPECIALLY DEWPOINT AND RELATIVE
    HUMIDITY OBSERVATIONS.

INZ001>003-010>013-019-020-251900-
NORTHWEST INDIANA

CITY           SKY/WX    TMP DP  RH WIND       PRES   REMARKS
GARY /AIRPORT/ CLOUDY    72  55  56 S9        30.00F
VALPARAISO     PTSUNNY   72  54  53 SW13      30.02F
6HR MIN TEMP:  55; 6HR MAX TEMP:  76;


$$

LMZ046-743>745-251900-
SOUTHERN LAKE MICHIGAN

STATION/POSITION TIME  TEMP WIND        PRES
                       AIR  DIR/SP/G
                 (UTC) (F)  (DEG/KT/KT) (MB)
BURNS HARBOR     1700   74  190/ 13/ 16 1016.9S
MICHIGAN CITY    1700   70  180/  7/ 10   N/A

$$

INZ004-005-014>016-021>024-251900-
NORTH CENTRAL INDIANA

CITY           SKY/WX    TMP DP  RH WIND       PRES   REMARKS
GOSHEN         PTSUNNY   75  55  49 SW13      30.03F
6HR MIN TEMP:  58; 6HR MAX TEMP:  76;

SOUTH BEND     MOSUNNY   75  55  49 S8        30.02F
6HR MIN TEMP:  61; 6HR MAX TEMP:  76;


$$

INZ006>009-017-018-025>027-251900-
NORTHEAST INDIANA

CITY           SKY/WX    TMP DP  RH WIND       PRES   REMARKS
ANGOLA *+      MOSUNNY   75  55  50 SW10      30.03F
FORT WAYNE     PTSUNNY   75  54  47 SW9       30.05F
6HR MIN TEMP:  60; 6HR MAX TEMP:  75;


$$

INZ028-029-035-036-043>045-051>053-251900-
WEST CENTRAL INDIANA

CITY           SKY/WX    TMP DP  RH WIND       PRES   REMARKS
GREENCASTLE +  CLOUDY    70  57  64 CALM      30.06F
LAFAYETTE      CLOUDY    73  56  54 S7        30.04F
6HR MIN TEMP:  57; 6HR MAX TEMP:  75;

TERRE HAUTE    CLOUDY    72  56  57 SW6       30.08R
6HR MIN TEMP:  57; 6HR MAX TEMP:  74;


$$

INZ030>032-037>040-046>048-054>057-064-065-251900-
CENTRAL INDIANA

CITY           SKY/WX    TMP DP  RH WIND       PRES   REMARKS
COLUMBUS       SUNNY     73  54  49 CALM      30.06F
INDIANAPOLIS   CLOUDY    74  55  51 S7        30.06F
6HR MIN TEMP:  60; 6HR MAX TEMP:  74;

-EAGLE CREEK   CLOUDY    74  52  46 VRB7      30.06F
6HR MIN TEMP:  60; 6HR MAX TEMP:  75;

KOKOMO *+      CLOUDY    75  57  53 SW12      30.05F
MT COMFORT *+  MOSUNNY   75  57  53 S6        30.07F
SHELBYVILLE    MOSUNNY   76  57  51 S9        30.06F
6HR MIN TEMP:  58; 6HR MAX TEMP:  76;


$$

INZ033-034-041-042-049-050-058-059-251900-
EAST CENTRAL INDIANA

CITY           SKY/WX    TMP DP  RH WIND       PRES   REMARKS
MUNCIE         MOSUNNY   75  53  46 W8        30.06F
6HR MIN TEMP:  57; 6HR MAX TEMP:  76;


$$

INZ060-061-067>069-081>083-085>088-251900-
SOUTHWEST INDIANA

CITY           SKY/WX    TMP DP  RH WIND       PRES   REMARKS
EVANSVILLE     PTSUNNY   79  53  40 VRB5      30.07R
6HR MIN TEMP:  61; 6HR MAX TEMP:  80;

HUNTINGBURG *+ CLOUDY    77  57  50 SW5       30.06F
6HR MIN TEMP:  57; 6HR MAX TEMP:  77;


$$

INZ062-063-066-070>080-084-089>092-251900-
SOUTH CENTRAL AND SOUTHEAST INDIANA

CITY           SKY/WX    TMP DP  RH WIND       PRES   REMARKS
BLOOMINGTON    CLOUDY    74  55  51 S5        30.06F
6HR MIN TEMP:  58; 6HR MAX TEMP:  75;


$$



USA.gov is the U.S. government's official web portal to all federal, state and local government web resources and services.